| time (UTC) | temp C | wind direction | speed KPH | gust KPH | rain 1hr cm | rain 24hr cm | rain mn cm | humidity % | barometer mb |
| 20260506092823 | 17 | 127 | 1.6 | 3.2 | 0.00 | 0.00 | 0.00 | 59 | 1006.5 |
| 20260506092321 | 17 | 252 | 0.0 | 0.0 | 0.00 | 0.00 | 0.00 | 59 | 1006.8 |
| 20260506091818 | 17 | 252 | 0.0 | 1.6 | 0.00 | 0.00 | 0.00 | 59 | 1006.6 |
| 20260506091315 | 17 | 252 | 0.0 | 1.6 | 0.00 | 0.00 | 0.00 | 58 | 1006.6 |
| 20260506090813 | 18 | 252 | 0.0 | 3.2 | 0.00 | 0.00 | 0.00 | 58 | 1006.6 |
| 20260506090310 | 18 | 316 | 0.0 | 1.6 | 0.00 | 0.00 | 0.00 | 56 | 1006.8 |
| 20260506085806 | 18 | 324 | 0.0 | 0.0 | 0.00 | 0.00 | 0.00 | 57 | 1006.6 |
| 20260506085305 | 17 | 351 | 1.6 | 1.6 | 0.00 | 0.00 | 0.00 | 57 | 1006.8 |
| 20260506084759 | 17 | 38 | 3.2 | 3.2 | 0.00 | 0.00 | 0.00 | 57 | 1006.8 |
| 20260506084256 | 18 | 35 | 0.0 | 3.2 | 0.00 | 0.00 | 0.00 | 57 | 1006.6 |
| 20260506083753 | 18 | 71 | 0.0 | 1.6 | 0.00 | 0.00 | 0.00 | 56 | 1006.5 |
| 20260506083251 | 18 | 90 | 4.8 | 4.8 | 0.00 | 0.00 | 0.00 | 55 | 1006.7 |
| 20260506082748 | 18 | 353 | 0.0 | 3.2 | 0.00 | 0.00 | 0.00 | 55 | 1006.7 |
| 20260506082243 | 18 | 79 | 0.0 | 3.2 | 0.00 | 0.00 | 0.00 | 55 | 1007.0 |
| 20260506081741 | 18 | 92 | 1.6 | 3.2 | 0.00 | 0.00 | 0.00 | 55 | 1006.6 |
| 20260506081238 | 18 | 318 | 3.2 | 4.8 | 0.00 | 0.00 | 0.00 | 54 | 1006.7 |
| 20260506080737 | 18 | 108 | 0.0 | 1.6 | 0.00 | 0.00 | 0.00 | 53 | 1006.5 |
| 20260506080232 | 18 | 107 | 0.0 | 4.8 | 0.00 | 0.00 | 0.00 | 53 | 1006.7 |
| 20260506073217 | 18 | 57 | 0.0 | 3.2 | 0.00 | 0.00 | 0.00 | 52 | 1006.6 |
| 20260506072713 | 19 | 275 | 0.0 | 1.6 | 0.00 | 0.00 | 0.00 | 52 | 1006.9 |
| 20260506072211 | 18 | 275 | 0.0 | 4.8 | 0.00 | 0.00 | 0.00 | 50 | 1007.2 |
| 20260506071708 | 18 | 13 | 0.0 | 1.6 | 0.00 | 0.00 | 0.00 | 51 | 1007.2 |
| 20260506071206 | 18 | 41 | 0.0 | 1.6 | 0.00 | 0.00 | 0.00 | 51 | 1007.0 |
| 20260506070703 | 18 | 270 | 0.0 | 3.2 | 0.00 | 0.00 | 0.00 | 50 | 1007.2 |
| 20260506070200 | 18 | 308 | 0.0 | 1.6 | 0.00 | 0.00 | 0.00 | 49 | 1007.3 |
| 20260506062137 | 18 | 112 | 4.8 | 6.4 | 0.00 | 0.00 | 0.00 | 49 | 1007.4 |
| 20260506061632 | 18 | 325 | 1.6 | 3.2 | 0.00 | 0.00 | 0.00 | 49 | 1007.4 |
| 20260506061131 | 18 | 150 | 1.6 | 4.8 | 0.00 | 0.00 | 0.00 | 49 | 1007.5 |
| 20260506060629 | 18 | 141 | 1.6 | 1.6 | 0.00 | 0.00 | 0.00 | 50 | 1007.6 |
| 20260506060125 | 18 | 142 | 0.0 | 3.2 | 0.00 | 0.00 | 0.00 | 49 | 1007.7 |
| 20260506051057 | 19 | 135 | 1.6 | 1.6 | 0.00 | 0.00 | 0.00 | 47 | 1008.2 |
| 20260506050555 | 18 | 150 | 0.0 | 9.7 | 0.00 | 0.00 | 0.00 | 46 | 1008.4 |
| 20260506045046 | 18 | 233 | 1.6 | 3.2 | 0.00 | 0.00 | 0.00 | 48 | 1008.3 |
| 20260506044544 | 18 | 136 | 1.6 | 3.2 | 0.00 | 0.00 | 0.00 | 47 | 1008.3 |
| 20260506044040 | 18 | 154 | 0.0 | 1.6 | 0.00 | 0.00 | 0.00 | 49 | 1008.1 |
| 20260506043537 | 18 | 153 | 1.6 | 3.2 | 0.00 | 0.00 | 0.00 | 47 | 1008.1 |
| 20260506043036 | 18 | 136 | 1.6 | 3.2 | 0.00 | 0.00 | 0.00 | 46 | 1008.2 |
| 20260506042534 | 18 | 136 | 1.6 | 3.2 | 0.00 | 0.00 | 0.00 | 47 | 1008.2 |
| 20260506042032 | 18 | 129 | 1.6 | 3.2 | 0.00 | 0.00 | 0.00 | 48 | 1008.0 |
| 20260506041531 | 18 | 264 | 0.0 | 1.6 | 0.00 | 0.00 | 0.00 | 49 | 1008.3 |
| 20260506041027 | 18 | 275 | 0.0 | 1.6 | 0.00 | 0.00 | 0.00 | 49 | 1008.4 |
| 20260506040525 | 18 | 126 | 0.0 | 1.6 | 0.00 | 0.00 | 0.00 | 51 | 1008.5 |
| 20260506040020 | 18 | 126 | 0.0 | 1.6 | 0.00 | 0.00 | 0.00 | 51 | 1008.5 |
| 20260506035517 | 18 | 264 | 0.0 | 3.2 | 0.00 | 0.00 | 0.00 | 49 | 1008.3 |
| 20260506035014 | 18 | 128 | 0.0 | 1.6 | 0.00 | 0.00 | 0.00 | 50 | 1008.5 |
| 20260506034512 | 18 | 63 | 0.0 | 0.0 | 0.00 | 0.00 | 0.00 | 50 | 1008.5 |
| 20260506034009 | 19 | 12 | 0.0 | 0.0 | 0.00 | 0.00 | 0.00 | 49 | 1008.3 |
| 20260506033506 | 18 | 52 | 0.0 | 0.0 | 0.00 | 0.00 | 0.00 | 46 | 1008.3 |
| 20260506033002 | 18 | 111 | 0.0 | 0.0 | 0.00 | 0.00 | 0.00 | 48 | 1008.4 |
| 20260506032500 | 19 | 73 | 0.0 | 1.6 | 0.00 | 0.00 | 0.00 | 49 | 1008.3 |
| 20260506031956 | 18 | 114 | 0.0 | 1.6 | 0.00 | 0.00 | 0.00 | 50 | 1008.3 |
| 20260506031454 | 18 | 74 | 0.0 | 1.6 | 0.00 | 0.00 | 0.00 | 53 | 1008.3 |
| 20260506030951 | 18 | 108 | 1.6 | 3.2 | 0.00 | 0.00 | 0.00 | 50 | 1008.2 |
| 20260506030449 | 18 | 111 | 0.0 | 0.0 | 0.00 | 0.00 | 0.00 | 54 | 1008.4 |
| 20260506025946 | 18 | 111 | 0.0 | 0.0 | 0.00 | 0.00 | 0.00 | 54 | 1008.3 |
| 20260506025443 | 18 | 111 | 0.0 | 0.0 | 0.00 | 0.00 | 0.00 | 54 | 1008.3 |
| 20260506024939 | 18 | 111 | 0.0 | 0.0 | 0.00 | 0.00 | 0.00 | 53 | 1008.3 |
| 20260506024436 | 18 | 110 | 0.0 | 0.0 | 0.00 | 0.00 | 0.00 | 52 | 1008.3 |
| 20260506023932 | 18 | 101 | 0.0 | 0.0 | 0.00 | 0.00 | 0.00 | 54 | 1008.6 |
| 20260506023429 | 18 | 101 | 0.0 | 0.0 | 0.00 | 0.00 | 0.00 | 53 | 1008.4 |
| 20260506022926 | 18 | 101 | 0.0 | 0.0 | 0.00 | 0.00 | 0.00 | 53 | 1008.5 |
| 20260506022424 | 18 | 101 | 0.0 | 0.0 | 0.00 | 0.00 | 0.00 | 53 | 1008.7 |
| 20260506021921 | 19 | 101 | 0.0 | 0.0 | 0.00 | 0.00 | 0.00 | 52 | 1008.5 |
| 20260506021418 | 20 | 101 | 0.0 | 0.0 | 0.00 | 0.00 | 0.00 | 50 | 1008.8 |
| 20260506020915 | 20 | 101 | 0.0 | 0.0 | 0.00 | 0.00 | 0.00 | 51 | 1008.7 |
| 20260506020413 | 20 | 101 | 0.0 | 0.0 | 0.00 | 0.00 | 0.00 | 49 | 1008.7 |
| 20260506015910 | 21 | 101 | 0.0 | 0.0 | 0.00 | 0.00 | 0.00 | 46 | 1008.5 |
| 20260506015408 | 21 | 101 | 0.0 | 0.0 | 0.00 | 0.00 | 0.00 | 46 | 1008.4 |
| 20260506014904 | 21 | 101 | 0.0 | 0.0 | 0.00 | 0.00 | 0.00 | 44 | 1008.5 |
| 20260506014401 | 21 | 100 | 0.0 | 1.6 | 0.00 | 0.00 | 0.00 | 44 | 1008.5 |
| 20260506013857 | 21 | 100 | 0.0 | 0.0 | 0.00 | 0.00 | 0.00 | 45 | 1008.2 |
| 20260506013356 | 21 | 100 | 1.6 | 1.6 | 0.00 | 0.00 | 0.00 | 44 | 1008.4 |
| 20260506012851 | 21 | 100 | 0.0 | 1.6 | 0.00 | 0.00 | 0.00 | 46 | 1008.3 |
| 20260506012348 | 21 | 120 | 0.0 | 3.2 | 0.00 | 0.00 | 0.00 | 44 | 1008.3 |
| 20260506011846 | 21 | 70 | 1.6 | 3.2 | 0.00 | 0.00 | 0.00 | 45 | 1008.3 |
| 20260506011342 | 21 | 155 | 0.0 | 0.0 | 0.00 | 0.00 | 0.00 | 45 | 1008.3 |
| 20260506010840 | 21 | 118 | 0.0 | 1.6 | 0.00 | 0.00 | 0.00 | 47 | 1008.3 |
| 20260506010338 | 21 | 272 | 0.0 | 1.6 | 0.00 | 0.00 | 0.00 | 46 | 1008.0 |
| 20260506005834 | 21 | 272 | 0.0 | 0.0 | 0.00 | 0.00 | 0.00 | 46 | 1008.0 |
| 20260506005331 | 21 | 272 | 0.0 | 1.6 | 0.00 | 0.00 | 0.00 | 45 | 1007.8 |
| 20260506004827 | 22 | 126 | 0.0 | 1.6 | 0.00 | 0.00 | 0.00 | 45 | 1007.7 |
| 20260506004325 | 22 | 126 | 0.0 | 0.0 | 0.00 | 0.00 | 0.00 | 42 | 1008.0 |
| 20260506003821 | 22 | 126 | 0.0 | 0.0 | 0.00 | 0.00 | 0.00 | 41 | 1007.7 |
| 20260506003317 | 22 | 126 | 0.0 | 0.0 | 0.00 | 0.00 | 0.00 | 40 | 1007.7 |
| 20260506002813 | 22 | 126 | 0.0 | 0.0 | 0.00 | 0.00 | 0.00 | 39 | 1007.7 |
| 20260506002310 | 22 | 125 | 0.0 | 0.0 | 0.00 | 0.00 | 0.00 | 39 | 1007.3 |
| 20260506001806 | 22 | 127 | 0.0 | 1.6 | 0.00 | 0.00 | 0.00 | 39 | 1007.2 |
| 20260506001303 | 22 | 104 | 0.0 | 1.6 | 0.00 | 0.00 | 0.00 | 40 | 1007.3 |
| 20260506000800 | 22 | 262 | 0.0 | 0.0 | 0.00 | 0.00 | 0.00 | 39 | 1007.5 |
| 20260506000258 | 23 | 262 | 0.0 | 1.6 | 0.00 | 0.00 | 0.00 | 40 | 1007.2 |
| 20260505235754 | 23 | 345 | 0.0 | 1.6 | 0.00 | 0.00 | 0.00 | 39 | 1006.9 |
| 20260505235252 | 23 | 345 | 4.8 | 6.4 | 0.00 | 0.00 | 0.00 | 38 | 1007.2 |
| 20260505234749 | 23 | 213 | 4.8 | 6.4 | 0.00 | 0.00 | 0.00 | 40 | 1007.0 |
| 20260505234246 | 23 | 46 | 3.2 | 3.2 | 0.00 | 0.00 | 0.00 | 38 | 1007.0 |
| 20260505233743 | 23 | 338 | 1.6 | 3.2 | 0.00 | 0.00 | 0.00 | 39 | 1006.9 |
| 20260505233241 | 23 | 150 | 6.4 | 9.7 | 0.00 | 0.00 | 0.00 | 39 | 1007.2 |
| 20260505232738 | 23 | 336 | 1.6 | 3.2 | 0.00 | 0.00 | 0.00 | 39 | 1007.2 |
| 20260505232235 | 23 | 290 | 4.8 | 4.8 | 0.00 | 0.00 | 0.00 | 38 | 1007.0 |
| 20260505231731 | 23 | 126 | 1.6 | 3.2 | 0.00 | 0.00 | 0.00 | 38 | 1006.9 |
| 20260505231231 | 23 | 139 | 1.6 | 6.4 | 0.00 | 0.00 | 0.00 | 39 | 1007.0 |
| 20260505230728 | 23 | 109 | 0.0 | 1.6 | 0.00 | 0.00 | 0.00 | 38 | 1006.9 |
| 20260505230225 | 23 | 307 | 0.0 | 1.6 | 0.00 | 0.00 | 0.00 | 37 | 1007.2 |
| 20260505225721 | 23 | 139 | 0.0 | 1.6 | 0.00 | 0.00 | 0.00 | 38 | 1007.0 |
| 20260505225219 | 23 | 242 | 0.0 | 3.2 | 0.00 | 0.00 | 0.00 | 37 | 1006.8 |
| 20260505224714 | 23 | 116 | 1.6 | 11.3 | 0.00 | 0.00 | 0.00 | 38 | 1007.0 |
| 20260505224212 | 23 | 103 | 3.2 | 6.4 | 0.00 | 0.00 | 0.00 | 37 | 1007.0 |
| 20260505223709 | 23 | 274 | 1.6 | 6.4 | 0.00 | 0.00 | 0.00 | 37 | 1006.8 |
| 20260505223205 | 23 | 127 | 1.6 | 6.4 | 0.00 | 0.00 | 0.00 | 38 | 1006.7 |
| 20260505222701 | 23 | 96 | 3.2 | 4.8 | 0.00 | 0.00 | 0.00 | 38 | 1006.8 |
| 20260505222157 | 23 | 335 | 0.0 | 4.8 | 0.00 | 0.00 | 0.00 | 38 | 1006.8 |
| 20260505221655 | 23 | 342 | 0.0 | 1.6 | 0.00 | 0.00 | 0.00 | 38 | 1006.9 |
| 20260505221151 | 23 | 146 | 1.6 | 3.2 | 0.00 | 0.00 | 0.00 | 39 | 1007.0 |
| 20260505220648 | 23 | 338 | 0.0 | 1.6 | 0.00 | 0.00 | 0.00 | 39 | 1006.9 |
| 20260505220146 | 23 | 269 | 0.0 | 1.6 | 0.00 | 0.00 | 0.00 | 38 | 1006.7 |
| 20260505215643 | 23 | 127 | 0.0 | 3.2 | 0.00 | 0.00 | 0.00 | 38 | 1006.8 |
| 20260505215141 | 23 | 291 | 1.6 | 6.4 | 0.00 | 0.00 | 0.00 | 39 | 1006.8 |
| 20260505214639 | 23 | 356 | 0.0 | 4.8 | 0.00 | 0.00 | 0.00 | 40 | 1006.5 |
| 20260505214136 | 23 | 250 | 0.0 | 3.2 | 0.00 | 0.00 | 0.00 | 39 | 1006.4 |
| 20260505213634 | 23 | 359 | 0.0 | 1.6 | 0.00 | 0.00 | 0.00 | 38 | 1006.5 |
| 20260505213130 | 23 | 359 | 1.6 | 3.2 | 0.00 | 0.00 | 0.00 | 38 | 1006.6 |
| 20260505212626 | 24 | 284 | 0.0 | 4.8 | 0.00 | 0.00 | 0.00 | 38 | 1006.8 |
| 20260505212124 | 24 | 333 | 0.0 | 4.8 | 0.00 | 0.00 | 0.00 | 37 | 1006.7 |
| 20260505211621 | 24 | 154 | 0.0 | 4.8 | 0.00 | 0.00 | 0.00 | 38 | 1006.5 |
| 20260505211118 | 24 | 219 | 3.2 | 3.2 | 0.00 | 0.00 | 0.00 | 37 | 1006.4 |
| 20260505210614 | 24 | 60 | 3.2 | 9.7 | 0.00 | 0.00 | 0.00 | 36 | 1006.5 |
| 20260505210111 | 24 | 158 | 0.0 | 4.8 | 0.00 | 0.00 | 0.00 | 36 | 1006.5 |
| 20260505205609 | 24 | 258 | 0.0 | 3.2 | 0.00 | 0.00 | 0.00 | 36 | 1006.4 |
| 20260505205107 | 25 | 118 | 0.0 | 4.8 | 0.00 | 0.00 | 0.00 | 37 | 1006.3 |
| 20260505204603 | 25 | 71 | 6.4 | 9.7 | 0.00 | 0.00 | 0.00 | 36 | 1006.4 |
| 20260505204101 | 25 | 243 | 1.6 | 6.4 | 0.00 | 0.00 | 0.00 | 36 | 1006.4 |
| 20260505203557 | 25 | 91 | 1.6 | 4.8 | 0.00 | 0.00 | 0.00 | 36 | 1006.6 |
| 20260505203055 | 25 | 132 | 3.2 | 4.8 | 0.00 | 0.00 | 0.00 | 35 | 1006.5 |
| 20260505202550 | 26 | 272 | 0.0 | 12.9 | 0.00 | 0.00 | 0.00 | 36 | 1006.4 |
| 20260505202047 | 26 | 288 | 3.2 | 17.7 | 0.00 | 0.00 | 0.00 | 34 | 1006.2 |
| 20260505201543 | 26 | 303 | 3.2 | 6.4 | 0.00 | 0.00 | 0.00 | 34 | 1006.3 |
| 20260505201041 | 27 | 136 | 1.6 | 4.8 | 0.00 | 0.00 | 0.00 | 34 | 1006.5 |
| 20260505200539 | 27 | 203 | 1.6 | 3.2 | 0.00 | 0.00 | 0.00 | 33 | 1006.4 |
| 20260505200036 | 27 | 318 | 4.8 | 11.3 | 0.00 | 0.00 | 0.00 | 33 | 1006.5 |
| 20260505195532 | 27 | 255 | 1.6 | 9.7 | 0.00 | 0.00 | 0.00 | 31 | 1006.5 |
| 20260505195029 | 28 | 342 | 1.6 | 9.7 | 0.00 | 0.00 | 0.00 | 32 | 1006.6 |
| 20260505194526 | 28 | 142 | 8.0 | 11.3 | 0.00 | 0.00 | 0.00 | 31 | 1006.1 |
| 20260505194021 | 28 | 93 | 1.6 | 3.2 | 0.00 | 0.00 | 0.00 | 33 | 1006.3 |
| 20260505193519 | 28 | 351 | 3.2 | 20.9 | 0.00 | 0.00 | 0.00 | 31 | 1006.5 |
| 20260505193016 | 28 | 157 | 3.2 | 12.9 | 0.00 | 0.00 | 0.00 | 33 | 1006.5 |
| 20260505192515 | 27 | 147 | 1.6 | 4.8 | 0.00 | 0.00 | 0.00 | 33 | 1006.5 |
| 20260505192012 | 27 | 283 | 6.4 | 11.3 | 0.00 | 0.00 | 0.00 | 31 | 1006.6 |
| 20260505191510 | 27 | 275 | 3.2 | 11.3 | 0.00 | 0.00 | 0.00 | 31 | 1006.5 |
| 20260505191008 | 27 | 289 | 4.8 | 11.3 | 0.00 | 0.00 | 0.00 | 30 | 1006.8 |
| 20260505190502 | 26 | 141 | 3.2 | 3.2 | 0.00 | 0.00 | 0.00 | 35 | 1006.8 |
| 20260505185958 | 26 | 329 | 1.6 | 6.4 | 0.00 | 0.00 | 0.00 | 32 | 1007.2 |
| 20260505185455 | 26 | 357 | 3.2 | 3.2 | 0.00 | 0.00 | 0.00 | 33 | 1007.0 |
| 20260505184951 | 26 | 75 | 3.2 | 6.4 | 0.00 | 0.00 | 0.00 | 31 | 1007.2 |
| 20260505184448 | 26 | 358 | 3.2 | 3.2 | 0.00 | 0.00 | 0.00 | 32 | 1007.2 |
| 20260505183945 | 26 | 331 | 9.7 | 14.5 | 0.00 | 0.00 | 0.00 | 31 | 1007.3 |
| 20260505183442 | 27 | 3 | 6.4 | 9.7 | 0.00 | 0.00 | 0.00 | 31 | 1006.9 |
| 20260505182938 | 27 | 356 | 1.6 | 6.4 | 0.00 | 0.00 | 0.00 | 31 | 1007.5 |
| 20260505182436 | 27 | 268 | 1.6 | 6.4 | 0.00 | 0.00 | 0.00 | 33 | 1007.2 |
| 20260505181932 | 26 | 115 | 0.0 | 11.3 | 0.00 | 0.00 | 0.00 | 34 | 1007.8 |
| 20260505181429 | 27 | 199 | 1.6 | 3.2 | 0.00 | 0.00 | 0.00 | 33 | 1007.5 |
| 20260505180926 | 27 | 256 | 3.2 | 4.8 | 0.00 | 0.00 | 0.00 | 32 | 1007.6 |
| 20260505180422 | 26 | 97 | 8.0 | 12.9 | 0.00 | 0.00 | 0.00 | 33 | 1007.6 |
| 20260505175919 | 26 | 316 | 1.6 | 4.8 | 0.00 | 0.00 | 0.00 | 36 | 1007.4 |
| 20260505175415 | 26 | 327 | 3.2 | 4.8 | 0.00 | 0.00 | 0.00 | 36 | 1007.6 |
| 20260505174912 | 27 | 304 | 3.2 | 9.7 | 0.00 | 0.00 | 0.00 | 35 | 1007.4 |
| 20260505174409 | 26 | 118 | 0.0 | 1.6 | 0.00 | 0.00 | 0.00 | 36 | 1007.7 |
| 20260505173906 | 26 | 298 | 6.4 | 14.5 | 0.00 | 0.00 | 0.00 | 35 | 1007.7 |
| 20260505173402 | 26 | 287 | 4.8 | 9.7 | 0.00 | 0.00 | 0.00 | 35 | 1007.3 |
| 20260505172859 | 26 | 270 | 4.8 | 11.3 | 0.00 | 0.00 | 0.00 | 34 | 1007.7 |
| 20260505172357 | 25 | 286 | 1.6 | 3.2 | 0.00 | 0.00 | 0.00 | 37 | 1007.5 |
| 20260505171856 | 25 | 238 | 3.2 | 9.7 | 0.00 | 0.00 | 0.00 | 37 | 1007.7 |
| 20260505171353 | 26 | 336 | 3.2 | 11.3 | 0.00 | 0.00 | 0.00 | 36 | 1007.5 |
| 20260505170850 | 26 | 34 | 3.2 | 9.7 | 0.00 | 0.00 | 0.00 | 36 | 1007.8 |
| 20260505170347 | 26 | 93 | 0.0 | 4.8 | 0.00 | 0.00 | 0.00 | 38 | 1007.9 |
| 20260505165842 | 26 | 124 | 3.2 | 6.4 | 0.00 | 0.00 | 0.00 | 38 | 1007.6 |
| 20260505165338 | 25 | 350 | 3.2 | 9.7 | 0.00 | 0.00 | 0.00 | 38 | 1007.7 |
| 20260505164834 | 26 | 295 | 3.2 | 6.4 | 0.00 | 0.00 | 0.00 | 37 | 1007.7 |
| 20260505164331 | 25 | 149 | 3.2 | 4.8 | 0.00 | 0.00 | 0.00 | 38 | 1007.9 |
| 20260505163829 | 25 | 325 | 4.8 | 11.3 | 0.00 | 0.00 | 0.00 | 37 | 1008.1 |
| 20260505163327 | 26 | 311 | 4.8 | 6.4 | 0.00 | 0.00 | 0.00 | 37 | 1008.0 |
| 20260505162825 | 25 | 319 | 3.2 | 6.4 | 0.00 | 0.00 | 0.00 | 38 | 1008.1 |
| 20260505162321 | 26 | 215 | 6.4 | 9.7 | 0.00 | 0.00 | 0.00 | 37 | 1008.1 |
| 20260505161819 | 26 | 278 | 1.6 | 4.8 | 0.00 | 0.00 | 0.00 | 38 | 1008.3 |
| 20260505161316 | 26 | 272 | 6.4 | 6.4 | 0.00 | 0.00 | 0.00 | 37 | 1008.3 |
| 20260505160813 | 26 | 336 | 3.2 | 6.4 | 0.00 | 0.00 | 0.00 | 39 | 1008.1 |
| 20260505160311 | 26 | 169 | 1.6 | 3.2 | 0.00 | 0.00 | 0.00 | 38 | 1008.2 |
| 20260505153250 | 25 | 142 | 0.0 | 4.8 | 0.00 | 0.00 | 0.00 | 43 | 1008.6 |
| 20260505152747 | 24 | 61 | 1.6 | 3.2 | 0.00 | 0.00 | 0.00 | 43 | 1008.8 |
| 20260505152243 | 23 | 293 | 3.2 | 4.8 | 0.00 | 0.00 | 0.00 | 43 | 1008.8 |
| 20260505151737 | 23 | 147 | 6.4 | 6.4 | 0.00 | 0.00 | 0.00 | 44 | 1008.6 |
| 20260505151235 | 23 | 117 | 6.4 | 9.7 | 0.00 | 0.00 | 0.00 | 42 | 1008.6 |
| 20260505150732 | 23 | 325 | 4.8 | 6.4 | 0.00 | 0.00 | 0.00 | 43 | 1008.6 |
| 20260505150230 | 23 | 235 | 3.2 | 9.7 | 0.00 | 0.00 | 0.00 | 43 | 1008.8 |
| 20260505140159 | 22 | 289 | 4.8 | 4.8 | 0.00 | 0.00 | 0.00 | 44 | 1008.7 |
| 20260505130123 | 21 | 306 | 3.2 | 4.8 | 0.00 | 0.00 | 0.00 | 48 | 1009.0 |
| 20260505124613 | 21 | 7 | 1.6 | 4.8 | 0.00 | 0.00 | 0.00 | 50 | 1008.8 |
| 20260505124109 | 20 | 69 | 0.0 | 1.6 | 0.00 | 0.00 | 0.00 | 51 | 1009.1 |
| 20260505123605 | 20 | 274 | 0.0 | 1.6 | 0.00 | 0.00 | 0.00 | 51 | 1009.0 |
| 20260505123102 | 20 | 285 | 3.2 | 3.2 | 0.00 | 0.00 | 0.00 | 50 | 1008.9 |
| 20260505122559 | 19 | 282 | 0.0 | 0.0 | 0.00 | 0.00 | 0.00 | 53 | 1008.7 |
| 20260505122056 | 18 | 288 | 3.2 | 4.8 | 0.00 | 0.00 | 0.00 | 53 | 1009.0 |
| 20260505121552 | 18 | 252 | 0.0 | 0.0 | 0.00 | 0.00 | 0.00 | 57 | 1008.9 |
| 20260505121049 | 17 | 252 | 0.0 | 0.0 | 0.00 | 0.00 | 0.00 | 59 | 1009.0 |
| 20260505120546 | 16 | 297 | 1.6 | 3.2 | 0.00 | 0.00 | 0.00 | 63 | 1009.0 |
| 20260505120041 | 15 | 122 | 0.0 | 1.6 | 0.00 | 0.00 | 0.00 | 68 | 1008.9 |
| 20260505115536 | 15 | 111 | 0.0 | 0.0 | 0.00 | 0.00 | 0.00 | 70 | 1009.0 |
| 20260505115034 | 15 | 111 | 0.0 | 0.0 | 0.00 | 0.00 | 0.00 | 71 | 1008.8 |
| 20260505114530 | 14 | 111 | 0.0 | 0.0 | 0.00 | 0.00 | 0.00 | 73 | 1008.8 |
| 20260505114027 | 13 | 111 | 0.0 | 0.0 | 0.00 | 0.00 | 0.00 | 75 | 1008.9 |
| 20260505113523 | 13 | 111 | 0.0 | 0.0 | 0.00 | 0.00 | 0.00 | 76 | 1009.0 |
| 20260505113020 | 13 | 111 | 0.0 | 0.0 | 0.00 | 0.00 | 0.00 | 78 | 1008.9 |
| 20260505112517 | 13 | 111 | 0.0 | 1.6 | 0.00 | 0.00 | 0.00 | 77 | 1008.8 |
| 20260505112015 | 13 | 111 | 0.0 | 1.6 | 0.00 | 0.00 | 0.00 | 79 | 1008.8 |
| 20260505111513 | 12 | 111 | 0.0 | 0.0 | 0.00 | 0.00 | 0.00 | 78 | 1008.8 |
| 20260505111010 | 12 | 112 | 0.0 | 0.0 | 0.00 | 0.00 | 0.00 | 80 | 1008.7 |
| 20260505110507 | 12 | 111 | 0.0 | 1.6 | 0.00 | 0.00 | 0.00 | 82 | 1008.8 |
| 20260505101939 | 11 | 117 | 0.0 | 1.6 | 0.00 | 0.00 | 0.00 | 86 | 1008.5 |
| 20260505101438 | 11 | 117 | 0.0 | 1.6 | 0.00 | 0.00 | 0.00 | 84 | 1008.6 |
| 20260505100934 | 11 | 117 | 0.0 | 0.0 | 0.00 | 0.00 | 0.00 | 80 | 1008.6 |
| 20260505100432 | 11 | 117 | 0.0 | 0.0 | 0.00 | 0.00 | 0.00 | 80 | 1008.3 |
| 20260505095927 | 11 | 117 | 0.0 | 0.0 | 0.00 | 0.00 | 0.00 | 80 | 1008.5 |
| 20260505095424 | 11 | 117 | 0.0 | 0.0 | 0.00 | 0.00 | 0.00 | 79 | 1008.3 |
| 20260505094920 | 11 | 117 | 0.0 | 0.0 | 0.00 | 0.00 | 0.00 | 79 | 1008.2 |
| 20260505094418 | 11 | 117 | 1.6 | 1.6 | 0.00 | 0.00 | 0.00 | 79 | 1008.1 |
| 20260505093914 | 11 | 117 | 0.0 | 0.0 | 0.00 | 0.00 | 0.00 | 79 | 1008.3 |
| 20260505093411 | 11 | 117 | 0.0 | 0.0 | 0.00 | 0.00 | 0.00 | 79 | 1008.3 |
| 20260505092908 | 11 | 116 | 0.0 | 0.0 | 0.00 | 0.00 | 0.00 | 80 | 1008.4 |